When you browse on this site, cookies collect data to enhance your experience and personalize the content and advertising you see.
Visit our Privacy Policy to learn more. By continuing to use the site, you agree to this use of cookies and data.
  • In Lithuania
  • List of Countries
  • For 7 days
  • Water Temperature
  • Satellite Maps
  • Weather Map
  • Weather Widgets
  • user-avatar
    Login

    Hourly Weather Townsville

    Today, 16 December, Sunday

    Time Temperature Precipitation Wind Pressure Humidity
    00:00 +27°C° 5 mm 7 mps 746 mmHg 95%
    01:00 +27°C° 5 mm 7 mps 745 mmHg 96%
    02:00 +27°C° 19.4 mm 8 mps 745 mmHg 96%
    03:00 +27°C° 19.4 mm 9 mps 744 mmHg 95%
    04:00 +27°C° 0 mm 5 mps 746 mmHg 95%
    05:00 +27°C° 15.8 mm 7 mps 745 mmHg 95%
    06:00 +27°C° 15.8 mm 8 mps 744 mmHg 96%
    07:00 +27°C° 15.8 mm 10 mps 744 mmHg 96%
    08:00 +27°C° 6.2 mm 9 mps 744 mmHg 95%
    09:00 +27°C° 6.2 mm 9 mps 744 mmHg 95%
    10:00 +27°C° 6.2 mm 8 mps 744 mmHg 94%
    11:00 +27°C° 1.3 mm 8 mps 744 mmHg 92%
    12:00 +27°C° 1.3 mm 9 mps 743 mmHg 91%
    13:00 +27°C° 1.3 mm 9 mps 743 mmHg 89%
    14:00 +28°C° 0.1 mm 9 mps 743 mmHg 86%
    15:00 +28°C° 0.1 mm 9 mps 742 mmHg 82%
    16:00 +29°C° 0.1 mm 9 mps 742 mmHg 78%
    17:00 +28°C° 0.1 mm 10 mps 742 mmHg 81%
    18:00 +28°C° 0.1 mm 10 mps 743 mmHg 83%
    19:00 +27°C° 0.1 mm 10 mps 743 mmHg 86%
    20:00 +27°C° 0.1 mm 9 mps 743 mmHg 87%
    21:00 +27°C° 0.1 mm 8 mps 744 mmHg 88%
    22:00 +27°C° 0.1 mm 8 mps 744 mmHg 88%
    23:00 +27°C° 0.1 mm 7 mps 744 mmHg 90%

    Tomorrow, 17 December, Monday

    Time Temperature Precipitation Wind Pressure Humidity
    00:00 +26°C° 0.1 mm 6 mps 744 mmHg 92%
    01:00 +26°C° 0.1 mm 6 mps 744 mmHg 93%
    02:00 +26°C° 0 mm 6 mps 744 mmHg 93%
    03:00 +26°C° 0 mm 6 mps 744 mmHg 93%
    04:00 +26°C° 0 mm 6 mps 744 mmHg 93%
    05:00 +26°C° 0 mm 6 mps 744 mmHg 93%
    06:00 +27°C° 0 mm 6 mps 745 mmHg 92%
    07:00 +27°C° 0 mm 6 mps 745 mmHg 91%
    08:00 +28°C° 0 mm 6 mps 745 mmHg 87%
    09:00 +29°C° 0 mm 6 mps 746 mmHg 82%
    10:00 +30°C° 0 mm 6 mps 746 mmHg 78%
    11:00 +32°C° 0 mm 6 mps 746 mmHg 73%
    12:00 +34°C° 0 mm 6 mps 745 mmHg 68%
    13:00 +35°C° 0 mm 6 mps 745 mmHg 62%
    14:00 +35°C° 0.1 mm 5 mps 745 mmHg 61%
    15:00 +35°C° 0.1 mm 5 mps 744 mmHg 59%
    16:00 +36°C° 0.1 mm 5 mps 744 mmHg 57%
    17:00 +35°C° 0 mm 4 mps 744 mmHg 62%
    18:00 +33°C° 0 mm 4 mps 745 mmHg 66%
    19:00 +31°C° 0 mm 3 mps 745 mmHg 70%
    20:00 +31°C° 0.1 mm 3 mps 745 mmHg 72%
    21:00 +30°C° 0.1 mm 3 mps 746 mmHg 74%
    22:00 +30°C° 0.1 mm 3 mps 747 mmHg 76%
    23:00 +29°C° 0.2 mm 3 mps 746 mmHg 78%

    Day after tomorrow, 18 December, Tuesday

    Time Temperature Precipitation Wind Pressure Humidity
    00:00 +29°C° 0.2 mm 2 mps 746 mmHg 81%
    01:00 +28°C° 0.2 mm 2 mps 746 mmHg 83%
    02:00 +28°C° 0.2 mm 2 mps 746 mmHg 84%
    03:00 +28°C° 0.2 mm 2 mps 746 mmHg 86%
    04:00 +27°C° 0.2 mm 2 mps 746 mmHg 87%
    05:00 +28°C° 0 mm 3 mps 746 mmHg 85%
    06:00 +28°C° 0 mm 3 mps 747 mmHg 84%
    07:00 +29°C° 0 mm 4 mps 747 mmHg 82%
    08:00 +30°C° 0 mm 4 mps 747 mmHg 75%
    09:00 +33°C° 0 mm 3 mps 748 mmHg 69%
    10:00 +35°C° 0 mm 3 mps 748 mmHg 62%
    11:00 +35°C° 0.5 mm 3 mps 747 mmHg 61%
    12:00 +36°C° 0.5 mm 3 mps 747 mmHg 60%
    13:00 +36°C° 0.5 mm 3 mps 747 mmHg 59%
    14:00 +35°C° 1.5 mm 3 mps 746 mmHg 63%
    15:00 +35°C° 1.5 mm 2 mps 746 mmHg 66%
    16:00 +34°C° 1.5 mm 2 mps 746 mmHg 70%
    17:00 +32°C° 1.5 mm 2 mps 746 mmHg 75%
    18:00 +31°C° 1.5 mm 2 mps 747 mmHg 80%
    19:00 +30°C° 1.5 mm 2 mps 747 mmHg 85%
    20:00 +29°C° 0.5 mm 3 mps 748 mmHg 87%
    21:00 +29°C° 0.5 mm 3 mps 748 mmHg 88%
    22:00 +29°C° 0.5 mm 4 mps 749 mmHg 89%
    23:00 +28°C° 0 mm 4 mps 748 mmHg 90%

    19 December, Wednesday

    Time Temperature Precipitation Wind Pressure Humidity
    00:00 +28°C° 0 mm 4 mps 748 mmHg 91%
    01:00 +27°C° 0 mm 4 mps 748 mmHg 92%
    02:00 +27°C° 0 mm 4 mps 748 mmHg 92%
    03:00 +27°C° 0 mm 4 mps 748 mmHg 92%
    04:00 +27°C° 0 mm 4 mps 748 mmHg 93%
    05:00 +27°C° 0.1 mm 4 mps 748 mmHg 92%
    06:00 +28°C° 0.1 mm 5 mps 748 mmHg 90%
    07:00 +28°C° 0.1 mm 5 mps 749 mmHg 89%
    08:00 +30°C° 0.1 mm 5 mps 749 mmHg 83%
    09:00 +32°C° 0.1 mm 5 mps 749 mmHg 77%
    10:00 +33°C° 0.1 mm 5 mps 749 mmHg 71%
    11:00 +34°C° 1.4 mm 5 mps 749 mmHg 71%
    12:00 +34°C° 1.4 mm 5 mps 748 mmHg 72%
    13:00 +34°C° 1.4 mm 5 mps 748 mmHg 72%
    14:00 +34°C° 2.2 mm 5 mps 747 mmHg 75%
    15:00 +33°C° 2.2 mm 6 mps 747 mmHg 77%
    16:00 +33°C° 2.2 mm 6 mps 747 mmHg 80%
    17:00 +32°C° 1 mm 6 mps 747 mmHg 83%
    18:00 +30°C° 1 mm 6 mps 748 mmHg 87%
    19:00 +29°C° 1 mm 6 mps 748 mmHg 90%
    20:00 +29°C° 0.5 mm 6 mps 749 mmHg 91%
    21:00 +28°C° 0.5 mm 6 mps 749 mmHg 92%
    22:00 +28°C° 0.5 mm 6 mps 750 mmHg 93%
    23:00 +28°C° 0.3 mm 6 mps 750 mmHg 93%

    20 December, Thursday

    Time Temperature Precipitation Wind Pressure Humidity
    00:00 +28°C° 0.3 mm 6 mps 749 mmHg 94%
    01:00 +28°C° 0.3 mm 5 mps 749 mmHg 94%
    02:00 +28°C° 0.7 mm 5 mps 749 mmHg 94%
    03:00 +28°C° 0.7 mm 4 mps 749 mmHg 94%
    04:00 +28°C° 0.7 mm 4 mps 749 mmHg 94%
    05:00 +28°C° 0.3 mm 3 mps 749 mmHg 92%
    06:00 +28°C° 0.3 mm 3 mps 750 mmHg 91%
    07:00 +29°C° 0.3 mm 2 mps 750 mmHg 89%
    08:00 +30°C° 0.5 mm 3 mps 750 mmHg 84%
    09:00 +32°C° 0.5 mm 4 mps 750 mmHg 80%
    10:00 +33°C° 0.5 mm 4 mps 751 mmHg 75%
    11:00 +33°C° 0.5 mm 4 mps 750 mmHg 72%
    12:00 +34°C° 0.5 mm 5 mps 750 mmHg 69%
    13:00 +34°C° 0.5 mm 5 mps 749 mmHg 67%
    14:00 +34°C° 0.1 mm 5 mps 749 mmHg 68%
    15:00 +33°C° 0.1 mm 5 mps 748 mmHg 69%
    16:00 +33°C° 0.1 mm 5 mps 748 mmHg 70%
    17:00 +32°C° 0.1 mm 4 mps 748 mmHg 75%
    18:00 +30°C° 0.1 mm 4 mps 749 mmHg 80%
    19:00 +28°C° 0.1 mm 3 mps 749 mmHg 85%
    20:00 +28°C° 0 mm 3 mps 750 mmHg 87%
    21:00 +28°C° 0 mm 3 mps 750 mmHg 88%
    22:00 +28°C° 0 mm 3 mps 750 mmHg 89%
    23:00 +28°C° 0.1 mm 3 mps 749 mmHg 90%

    21 December, Friday

    Time Temperature Precipitation Wind Pressure Humidity
    00:00 +28°C° 0.1 mm 2 mps 749 mmHg 90%
    01:00 +28°C° 0.1 mm 2 mps 749 mmHg 91%
    02:00 +27°C° 0.7 mm 2 mps 749 mmHg 91%
    03:00 +27°C° 0.7 mm 2 mps 748 mmHg 92%
    04:00 +27°C° 0.7 mm 2 mps 748 mmHg 92%
    05:00 +27°C° 0.2 mm 2 mps 749 mmHg 92%
    06:00 +28°C° 0.2 mm 2 mps 749 mmHg 91%
    07:00 +28°C° 0.2 mm 2 mps 749 mmHg 91%
    08:00 +28°C° 0.5 mm 2 mps 749 mmHg 89%
    09:00 +29°C° 0.5 mm 2 mps 750 mmHg 87%
    10:00 +29°C° 0.5 mm 2 mps 750 mmHg 85%
    11:00 +30°C° 0.3 mm 2 mps 749 mmHg 82%
    12:00 +30°C° 0.3 mm 2 mps 749 mmHg 80%
    13:00 +31°C° 0.3 mm 3 mps 748 mmHg 77%
    14:00 +30°C° 0.4 mm 3 mps 748 mmHg 79%
    15:00 +30°C° 0.4 mm 3 mps 748 mmHg 81%
    16:00 +29°C° 0.4 mm 3 mps 747 mmHg 84%
    17:00 +29°C° 0.3 mm 3 mps 748 mmHg 87%
    18:00 +28°C° 0.3 mm 3 mps 748 mmHg 90%
    19:00 +27°C° 0.3 mm 2 mps 748 mmHg 93%
    20:00 +27°C° 0.5 mm 3 mps 749 mmHg 94%
    21:00 +27°C° 0.5 mm 3 mps 749 mmHg 94%
    22:00 +27°C° 0.5 mm 3 mps 749 mmHg 94%
    23:00 +27°C° 1.1 mm 3 mps 749 mmHg 95%
    Show more